#timestamp,LO_Frequency,Hit 
1505476815.6,286046996.8,N
1505476835.5,286046999.4,N
1505476855.3,286046999.1,N
1505476875.1,286046999.6,N
1505476895.8,286046997.1,N
1505476915.7,286046997.8,N
1505476935.5,286046999.5,N
1505476955.3,286047000.1,N
1505476975.2,286047002.2,N
1505476995.9,286047002.3,N
1505477015.7,286047001.5,N
1505477035.6,286047002.5,N
1505477055.4,286046999.8,N
1505477075.2,286046999.3,N
1505477095.1,286046998.7,N
1505477096.0,286046998.7,N
1505477115.8,286046994.9,N
1505477135.6,286046995.4,N
1505477155.5,286046999.6,N
1505477175.3,286047000.9,N
1505477195.1,286046999.5,N
1505477215.8,286046997.6,N
1505477235.7,286046999.4,N
1505477255.5,286046998.5,N
1505477275.3,286047001.0,N
1505477295.2,286046999.8,N
1505477315.9,286047000.1,N
1505477335.7,286046998.5,N
1505477355.6,286046997.9,N
1505477375.4,286046995.2,N
1505477395.2,286046996.5,N
1505477415.1,286046998.1,N
1505477416.0,286046998.1,N
1505477435.8,286046998.3,N
1505477455.6,286046998.0,N
1505477475.5,286046993.4,P
1505477495.3,286046996.1,N
1505477515.1,286046996.7,N
1505477535.9,286046999.5,N
1505477555.7,286046996.9,N
1505477575.5,286046999.5,N
1505477595.4,286046997.6,N
1505477615.2,286046993.8,P
1505477635.0,286046997.9,N
1505477635.9,286046997.9,N
1505477655.8,286046995.6,N
1505477675.6,286046997.6,N
1505477695.4,286046995.6,N
1505477715.3,286046996.2,N
1505477735.1,286046994.8,P
1505477736.0,286046994.8,P
1505477755.8,286046993.9,P
1505477775.7,286046995.8,P
1505477795.5,286047000.7,N
1505477815.3,286047001.2,N
1505477835.2,286046998.2,N
1505477855.9,286046999.0,N
1505477875.7,286046995.0,N
1505477895.6,286046993.9,N
1505477915.4,286046994.8,N
1505477935.2,286046992.5,N
1505477955.1,286046992.0,N
1505477956.0,286046992.0,N
1505477975.8,286046994.5,N
1505477995.6,286046991.7,N
1505478015.5,286046991.6,N
1505478035.3,286046990.8,N
1505478055.1,286046991.0,N
1505478075.9,286046989.3,P
1505478095.7,286046994.4,N
1505478115.5,286046993.9,N
1505478135.3,286046994.1,N
1505478155.2,286046993.6,P
1505478175.0,286047000.4,N
1505478175.9,286047000.4,N
1505478195.8,286047000.4,N
1505478215.6,286047001.9,N
1505478235.4,286047002.0,N
1505478255.2,286047004.2,N
1505478275.1,286047001.6,N
1505478276.0,286047001.6,N
1505478295.8,286047004.4,N
1505478315.6,286047002.1,N
1505478335.5,286046999.7,N
1505478355.3,286047000.8,N
1505478375.1,286046999.5,N
1505478395.9,286047000.9,N
1505478415.7,286046998.5,N
1505478435.5,286046998.3,N
1505478455.4,286047001.0,N
1505478475.2,286046998.5,N
1505478495.0,286046998.8,N
1505478495.9,286046998.8,N
1505478515.8,286047000.3,N
1505478535.6,286047002.3,N
1505478555.4,286047001.1,N
1505478575.2,286046997.7,N
1505478595.1,286046996.8,N
1505478596.0,286046996.8,N
1505478615.8,286046999.4,N
1505478635.6,286046999.4,N
1505478655.5,286046997.4,N
1505478675.3,286046996.3,N
1505478695.1,286046997.4,N
1505478715.9,286046995.1,N
1505478735.7,286046995.1,N
1505478755.5,286046994.5,N
1505478775.4,286046992.4,P
1505478795.2,286046990.1,N
1505478815.0,286046990.3,N
1505478815.9,286046990.3,N
1505478835.8,286046990.6,N
1505478855.6,286046993.1,N
1505478875.4,286046992.3,N
1505478895.3,286046989.0,P
1505478915.1,286046996.6,N
1505478935.8,286046994.9,N
1505478955.7,286046995.2,N
1505478975.5,286046997.6,N
1505478995.3,286046994.1,N
1505479015.2,286046993.9,N
1505479035.9,286046995.7,N
1505479055.7,286046995.4,N
1505479075.6,286046995.1,N
1505479095.4,286046994.0,N
1505479115.2,286046992.4,P
1505479135.1,286046997.1,N
1505479136.0,286046997.1,N
1505479155.8,286046999.4,N
1505479175.6,286046997.9,N
1505479195.5,286046997.9,N
1505479215.3,286046996.7,N
1505479235.1,286046997.2,N
1505479255.9,286046997.4,N
1505479275.7,286046997.0,N
1505479295.5,286046997.3,N
1505479315.3,286046997.1,N
1505479335.2,286046994.9,P
1505479355.0,286046997.0,P
1505479355.9,286046997.0,P
1505479375.8,286046998.2,N
1505479395.6,286047000.9,N
1505479415.4,286047000.5,N
1505479435.2,286046998.1,N
1505479455.1,286046995.8,N
1505479456.0,286046995.8,N
1505479475.8,286046996.1,N
1505479495.6,286046995.3,N
1505479515.5,286046996.7,N
1505479535.3,286046997.6,N
1505479555.1,286046997.4,N
1505479575.9,286046995.3,N
1505479595.7,286046997.1,N
1505479615.5,286046997.7,N
1505479635.4,286046997.4,N
1505479655.2,286046997.9,N
1505479675.0,286046995.1,P
1505479675.9,286046995.1,P
1505479695.8,286046998.2,N
1505479715.6,286046999.1,N
1505479735.4,286046999.5,N
1505479755.3,286046999.2,N
1505479775.1,286046998.8,N
1505479776.0,286046998.8,N
1505479795.8,286046998.7,N
1505479815.7,286046998.7,N
1505479835.5,286046998.5,N
1505479855.3,286046999.3,N
1505479875.1,286046999.3,N
1505479895.9,286046998.3,N
1505479915.7,286046998.9,N
1505479935.5,286046998.6,N
1505479955.4,286046996.9,N
1505479975.2,286046997.1,N
1505479995.0,286046999.4,N
1505479995.9,286046999.4,N
1505480015.8,286046998.3,N
1505480035.6,286046998.6,N
1505480055.4,286047001.2,N
1505480075.3,286047001.2,N
1505480095.1,286046994.9,P
1505480096.0,286046994.9,N
1505480115.8,286046995.2,N
1505480135.7,286046993.4,P
1505480155.5,286046997.1,N
1505480175.3,286046996.9,N
1505480195.2,286046995.1,P
1505480215.0,286046998.2,P
1505480215.9,286046998.2,N
1505480235.7,286046998.7,N
1505480255.6,286046998.1,N
1505480275.4,286047000.8,N
1505480295.2,286046999.1,N
1505480315.1,286046996.6,N
1505480316.0,286046996.6,N
1505480335.8,286046997.2,N
1505480355.6,286046997.4,N
1505480375.5,286046995.0,P
1505480395.3,286046995.4,P
